STARLINK-5664, 55360

Orbit data source: Space-Track

STARLINK-5664, 55360 is a payload satellite owned by SpaceX/Seattle (US) in LEO that was launched on Thu, 26 Jan 2023 UTC via an FALCON 9 launch vehicle from the Air Force Eastern Test Range (AFETR). Payload-class satellites include a variety of spacecraft equipped with specific instruments for various scientific and technological missions. These include communications satellites like Starlink; space stations such as the ISS; scientific satellites like the Hubble; Earth observation satellites from companies like Planet Labs, Umbra, and HawkEye 360; GPS; miniature CubeSats for education and research; and military/defense satellites.

Loading next visibility...
Identifier
55360, 2023-013AF
Orbit
LEO
Country
Flag of USUS
Related business
Manufacturer
SpaceX/Seattle
Mission
Operational Commercial Communications
Bus & Motor
STARLINK, Unknown motor
Mass
305 kg wet, ~290 kg dry
Launch date (UTC)
2023-01-26 (3 years ago)
Launch vehicle
FALCON 9
Launch site
Air Force Eastern Test Range (AFETR)
Object type
Payload
Rocket body
Debris
Shape & HBR
Box + 1 Pan, 10.1 m
Radar Cross Section
13.562 m², Large (>1 m²)

Expand to show TLE details & history
Last TLE update: 2 days ago

TLE from 2 days ago
0 STARLINK-5664
1 55360U 23013AF  25348.25054929  .00002809  00000-0  22285-3 0  9997
2 55360  43.0005  57.0116 0001378 273.3126  86.7559 15.02550917158713
Epoch: 2025-12-14T06:00Z
TLE epoch observation values (Epoch: 2025-12-14T06:00:47.458Z)
Latitude
-0°
Longitude
-116.3523°
Altitude
558.758 km
Speed
7.584 km/s
True Right ascension
03h 48m 02s
True Declination
0° 00' 00"
Sunlit
Object was in full shadow at epoch
Visualization orbit readout
Latitude
Unknown
Longitude
Unknown
Altitude
Unknown
Speed
Unknown
Apparent Right ascension
Unknown
Apparent Declination
Unknown
Sunlit
N/A
Visualization observer readout
Local Sidereal Time
17:08:46
Azimuth
Unknown
Elevation
Unknown
Doppler factor
Unknown
Orbital elements
Apogee altitude
561.914 km
Perigee altitude
560.001 km
Semi-major axis
6,939.094 km
Eccentricity
0.00014
Inclination
43.0005°
RAAN
57.0116°
Arg. of periapsis
273.3126°
True anomaly
86.77167°
Mean anomaly
86.7559°
Eccentric anomaly
86.76378°
Mean motion
3.75482 °/min
Orbital period
95.88 mins
BSTAR
0.00022285
Loading maneuver chart data...
Computing Atmospheric mass density...
Loading historical data...
Loading historical data...
Loading historical data...
Loading historical data...
Loading historical data...
Loading historical data...
Loading historical data...

Documentation

Showing up to 5 results
|